WELCOME TO AIR WEST FLIGHT SUPPORT

Slider

THE RIGHT CHOICE FOR THE BEST SERVICE

OUR GOAL IS TO BE THE MOST ACCOMMODATING FBO IN LETHBRIDGE, AB. WITH EFFICIENT AND PROFFESSIONAL SERVICE

 WE HAVE GOT IT ALL!

  • Great Attitude
  • The Right Equipment
  • Large Facilities
  • Competitive Fuel Prices
  • In-House Aircraft Maintenance
  • In-House Flight Training, Aircraft Rentals
  • Aircraft Sales And Much  More!

Facebook By Weblizar Powered By Weblizar

 


We are located at the Lethbridge County Airport (CYQL) on Ramp 2 at the east end of Taxiway C.   Lethbridge is a key point of entry where you can clear customs using
CANPASS.  The Airport is approximately 5 km south of the City of Lethbridge, which offers convenient access to nearby towns such as Cardston, Crowsnest Pass, Coaldale, Fort MacLeod, Milk River, Pincher Creek and Taber.  Lethbridge and its surrounding area is a great tourist destination

 


Click on image to enlarge

Available data for CYQL from the past 2 hours
LETHBRIDGE VOR, AB
Metar
CYQL 161300Z 14005KT 25SM BKN080 M01/M06 A2998 RMK AC6 SLP188

13:00 UTC

Wind: 140° 5kt

Visibility: 25 SM

Sky: BKN 8000 ft

Temp: -1 deg C / 30.2 deg F

Dewpoint: -6 deg C / 21.2 deg F

Pressure: 29.98 inHg

TAF
TAF CYQL 161146Z 1612/1624 14005KT P6SM OVC150 BECMG 1615/1617 19012KT FM161900 20012KT P6SM BKN200 BECMG 1620/1622 22018G28KT FM162300 20012G22KT P6SM SCT250 RMK FCST BASED ON AUTO OBS. NXT FCST BY 161800Z